Air Resources Laboratory banner image
Air Resources Laboratory web site National Oceanic and Atmospheric Administration (NOAA)

md roundup


Office: LWX

ASUS41 KLWX 162211
RWRLWX

REGIONAL WEATHER ROUNDUP
NATIONAL WEATHER SERVICE BALTIMORE MD/WASHINGTON DC
500 PM EST SAT DEC 16 2017

Note: "FAIR" indicates few or no clouds below 12,000 feet
with no significant weather and/or obstructions to visibility.
 TC=TEMPERATURE CELSIUS

 * =Non NWS site. Station does not report precipitation (e.g. rain,
    snow, etc.), thunder, or fog.

DCZ001-MDZ009-015-VAZ040>042-051-053>054-162300-
WASHINGTON METRO

CITY           SKY/WX    TMP DP  RH WIND       PRES   REMARKS
WASHINGTON NAT PTCLDY    45  23  42 S12       30.10R
DULLES         PTCLDY    41  23  48 S7        30.08R
ANDREWS AFB    CLEAR     41  22  45 SW8       30.08R
FT BELVOIR     CLEAR     44  23  43 S6        30.10R
QUANTICO       CLEAR     45  28  51 SW7       30.13R
COLLEGE PARK*  CLEAR     44  22  42 CALM      30.09R
LEESBURG*      CLEAR     43  27  52 SW5       30.09R
MANASSAS*      CLEAR     43  23  45 S5        30.10R
GAITHERSBURG*  CLEAR     41  22  46 SW5       30.08R

$$

MDZ006>007-011-014-162300-
BALTIMORE METRO

CITY           SKY/WX    TMP DP  RH WIND       PRES   REMARKS
BWI AIRPORT    PTCLDY    42  23  46 S5        30.08R
MD SCIENCE CTR   N/A     44  24  45 MISG      30.08R
MARTIN STATE   PTCLDY    43  27  52 S7        30.10R
ANNAPOLIS      CLEAR     43  24  47 S3        30.10R
FORT MEADE*    CLEAR     41  25  52 SW7       30.11R

$$

MDZ012-015-019>023-162300-
MARYLAND EASTERN SHORE

CITY           SKY/WX    TMP DP  RH WIND       PRES   REMARKS
OCEAN CITY     CLEAR     39  26  59 SW7       30.14R
SALISBURY      CLEAR     38  24  57 S7        30.13R
BAY BRIDGE AP* CLEAR     43  27  52 SW9       30.10R
CAMBRIDGE*     CLEAR     41  25  52 VRB6      30.12R
EASTON*        PTCLDY    41  25  52 SW9       30.14R

$$

MDZ017>025-162300-
SOUTHERN MARYLAND

CITY           SKY/WX    TMP DP  RH WIND       PRES   REMARKS
PATUXENT RIVER PTCLDY    43  22  43 S5        30.12R
ST INIGOES     CLEAR     44  27  51 S9        30.13S
LEONARDTOWN*   CLEAR     43  23  45 S3        30.13S

$$

MDZ003>005-162300-
NORTH CENTRAL MARYLAND

CITY           SKY/WX    TMP DP  RH WIND       PRES   REMARKS
FREDERICK*     CLEAR     43  19  39 S8        30.10R
HAGERSTOWN APT CLEAR     43  25  49 S3        30.05R
WESTMINSTER*   CLEAR     39  27  60 S8        30.04R

$$

MDZ501>502-162300-
WESTERN MARYLAND

CITY           SKY/WX    TMP DP  RH WIND       PRES   REMARKS
OAKLAND*       CLEAR     32  23  69 W12G17    29.96R WCI  23
CUMBERLAND*    CLEAR     43  25  49 S5        30.09R

$$

VAZ025>031-162300-
SHENANDOAH VALLEY

CITY           SKY/WX    TMP DP  RH WIND       PRES   REMARKS
WINCHESTER*    CLEAR     43  23  45 S3        30.05R
FRONT ROYAL*   FAIR      45  25  45 MISG      30.05R
LURAY*         CLEAR     45  27  49 S3        30.06R
NEW MARKET*    CLEAR     43  24  46 SW3       30.05R
STAUNTON*      CLEAR     44  24  45 SW9       30.08R
WAYNESBORO*    CLEAR     44  22  41 S5        30.07R

$$

WVZ021-048>050-054>055-162300-
EASTERN WEST VIRGINIA PANHANDLE

CITY           SKY/WX    TMP DP  RH WIND       PRES   REMARKS
MARTINSBURG    CLEAR     44  23  43 W8        30.05R
PETERSBURG*    CLEAR     42  23  47 NW3       30.06R

$$

VAZ036>039-050-162300-
CENTRAL FOOTHILLS

CITY           SKY/WX    TMP DP  RH WIND       PRES   REMARKS
CHARLOTTESVILL CLEAR     46  24  42 S8        30.08R
CULPEPER*      FAIR      45  21  38 S5        30.10R
ORANGE*        CLEAR     43  23  45 CALM      30.09R
GORDONSVILLE*  CLEAR     44  24  45 S6        30.09R
WARRENTON*     CLEAR     44  18  36 S3        30.09R

$$

VAZ055>057-162300-
NORTH AND CENTRAL PIEDMONT

CITY           SKY/WX    TMP DP  RH WIND       PRES   REMARKS
FREDERICKSBRG* CLEAR     45  25  45 S8        30.12R
STAFFORD*      CLEAR     45  23  42 S3        30.15R

$$

NCZ024-NYZ072-PAZ021-071-VAZ022-071-162300-
OTHER REGIONAL OBSERVATIONS

CITY           SKY/WX    TMP DP  RH WIND       PRES   REMARKS
NEW YORK CITY  CLOUDY    38  24  57 W9G17     30.04R
PHILADELPHIA   MOCLDY    40  24  53 SW13      30.07R
PITTSBURGH     PTCLDY    43  26  51 SW6       30.03R
ROANOKE        PTCLDY    47  23  38 SW10      30.14R
RICHMOND       CLEAR     47  23  38 S8        30.15R
RALEIGH        MOCLDY    43  24  47 SW7       30.20R

$$

ANZ530>537-162300-
MARINE OBSERVATIONS

STATION/POSITION TIME  TEMP    WIND        PRES
                       AIR SEA DIR/SP/G
                 (UTC) (F)     (DEG/KT/KT) (MB)
THOMAS PT LIGHT  2200   44 44  210/ 12/ 13   N/A
BALT KEY BRIDGE  2136   44     210/  8/ 10 1018.5R
COVE POINT       2136   44     220/ 11/ 14 1020.4R
LEWISETTA        2136   45 39  230/  8/  9 1020.4R
SOLOMONS ISLAND  2136   45 45  210/  8/ 10 1019.6R
PINEY POINT      2148          240/  7/ 10   N/A

$$





Office: PHI ASUS41 KPHI 162212 RWRPHI REGIONAL WEATHER ROUNDUP NATIONAL WEATHER SERVICE MOUNT HOLLY NJ 500 PM EST SAT DEC 16 2017 NOTE: "FAIR" INDICATES FEW OR NO CLOUDS BELOW 12,000 FEET WITH NO SIGNIFICANT WEATHER AND/OR OBSTRUCTIONS TO VISIBILITY. * = STATION DOES NOT REPORT PRECIPITATION (E.G. RAIN, SNOW, ETC.) OR FOG. NJZ015>026-162300- SOUTHERN NEW JERSEY CITY SKY/WX TMP DP RH WIND PRES REMARKS POMONA PTCLDY 39 26 59 SW8 30.08R WCI 33 WILDWOOD* PTCLDY 40 26 57 SW10 30.12R WCI 33 MILLVILLE CLEAR 40 27 59 SW7 30.09R WRIGHTSTOWN CLOUDY 39 23 53 W12 30.03R WCI 32 MOUNT HOLLY PTCLDY 40 23 50 SW9 30.06R WCI 34 TRENTON CLOUDY 39 24 55 SW7 30.04R WCI 34 $$ NJZ001>014-162300- NORTHERN NEW JERSEY CITY SKY/WX TMP DP RH WIND PRES REMARKS SUSSEX CLOUDY 32 23 69 CALM 30.01R ANDOVER* N/A 33 24 69 VRB6 30.01R WCI 28 MORRISTOWN CLOUDY 37 25 60 W9 30.03R WCI 31 NEWARK CLOUDY 38 25 59 SW13 30.03R WCI 30 TETERBORO CLOUDY 37 24 59 SW7 30.02R WCI 32 CALDWELL CLOUDY 36 24 62 W6 30.03R WCI 31 SOMERVILLE CLOUDY 37 25 61 CALM 30.02R ALLAIRE* CLOUDY 38 23 55 SW8 30.06R WCI 32 TOMS RIVER* CLOUDY 39 24 55 W9 30.06R WCI 33 $$ PAZ043-044-047-054-055-060>062-066>071-162300- EASTERN PENNSYLVANIA CITY SKY/WX TMP DP RH WIND PRES REMARKS PHILADELPHIA MOCLDY 40 24 53 SW13 30.07R WCI 32 NORTH PHILA CLOUDY 41 24 51 SW10 30.07R BLUE BELL* CLOUDY 36 27 69 SW6 30.07R WCI 31 DOYLESTOWN CLOUDY 37 23 56 SW7 30.03R WCI 32 QUAKERTOWN* CLOUDY 37 25 60 SW5 30.04R WCI 34 PERKASIE* CLOUDY 36 25 64 SW5 30.04R WCI 32 POTTSTOWN CLOUDY 38 23 55 CALM 30.06R LANCASTER CLOUDY 40 26 57 W7 30.05R COATESVILLE CLOUDY 37 23 56 VRB6 30.05R WCI 33 READING CLOUDY 39 27 62 W3 30.04R ALLENTOWN CLOUDY 37 26 64 W8 30.03R WCI 31 MOUNT POCONO FLURRIES 29 25 85 W16G23 29.94R WCI 17 HAZLETON FLURRIES 34 27 75 W9 30.01R WCI 26 LEHIGHTON CLOUDY 34 28 80 CALM 30.03R WILKES BARRE LGT SNOW 32 26 78 NW6 30.00R WCI 26 $$ DEZALL-MDZ008-012-015-019-020-162300- DELAWARE AND EASTERN MARYLAND CITY SKY/WX TMP DP RH WIND PRES REMARKS WILMINGTON PTCLDY 40 25 55 SW7 30.08R DOVER CLEAR 38 28 66 S8 30.09R WCI 32 GEORGETOWN CLEAR 39 24 55 SW8 30.13R WCI 33 EASTON PTCLDY 41 25 52 SW9 30.14R ABERDEEN CLEAR N/A N/A N/A SW6 30.09R PATUXENT PTCLDY 43 22 43 S5 30.12R OCEAN CITY CLEAR 39 26 59 SW7 30.14R WCI 34 WALLOPS ISLAND CLEAR 41 24 51 SW8 30.15S CAMBRIDGE CLEAR 41 25 52 VRB6 30.12R SALISBURY CLEAR 38 24 57 S7 30.13R WCI 33 $$ PAZ001-021-NYZ056-072-MDZ011-DCZ001-162300- OTHER NEARBY LOCATIONS CITY SKY/WX TMP DP RH WIND PRES REMARKS HARRISBURG CLOUDY 41 28 60 NW5 30.05R STATE COLLEGE CLOUDY 36 28 75 SW12 30.02R WCI 27 WILLIAMSPORT CLOUDY 39 29 67 W6 30.04R WCI 35 BINGHAMTON LGT SNOW 22 19 89 NW7 29.98R FOG WCI 13 NEW YORK CITY CLOUDY 38 24 57 W9G17 30.04R WCI 31 BALTIMORE PTCLDY 42 23 46 S5 30.08R WASHINGTON DC PTCLDY 45 23 42 S12 30.10R $$
Office: AKQ ASUS41 KAKQ 162215 RWRAKQ REGIONAL WEATHER ROUNDUP NATIONAL WEATHER SERVICE WAKEFIELD VA 500 PM EST SAT DEC 16 2017 Note: "fair" indicates few or no clouds below 12,000 feet with no significant weather and/or obstructions to visibility. * = Denotes station may not report precipitation (e.g., rain,snow,etc.), thunder or fog. VAZ042-051-052>054-056-162300- NORTHERN VIRGINIA CITY SKY/WX TMP DP RH WIND PRES REMARKS WASH NATIONAL PTCLDY 45 23 42 S12 30.10R DULLES PTCLDY 41 23 48 S7 30.08R FORT BELVOIR CLEAR 44 23 43 S6 30.10R QUANTICO CLEAR 45 28 51 SW7 30.13R FREDERICKSBRG* CLEAR 45 25 45 S8 30.12R STAFFORD* CLEAR 45 23 42 S3 30.15R WARRENTON CLEAR 44 18 36 S3 30.09R CULPEPER* CLEAR 45 21 38 S5 30.10R MANASSAS* CLEAR 43 23 45 S5 30.10R LEESBURG* CLEAR 43 27 52 SW5 30.09R WINCHESTER CLEAR 43 23 45 S3 30.05R FRONT ROYAL* CLEAR 45 25 45 MISG 30.05R LURAY* CLEAR 45 27 49 S3 30.06R $$ VAZ048-049-060>072-079>083-162300- CENTRAL AND SOUTH CENTRAL VIRGINIA CITY SKY/WX TMP DP RH WIND PRES REMARKS RICHMOND CLEAR 47 23 38 S8 30.15R CHESTERFIELD* NOT AVBL PETERSBURG* CLEAR 43 21 42 CALM 30.17R HANOVER CLEAR 45 22 40 S7 30.15S TAPPAHANNOCK* CLEAR 44 23 43 CALM 30.15R QUINTON* FAIR 46 23 40 SW3 30.15R CHARLOTTSVILLE CLEAR 46 24 42 S8 30.08R GORDONSVILLE* CLEAR 44 24 45 S6 30.09R ORANGE* CLEAR 43 23 45 CALM 30.09R LOUISA* CLEAR 43 22 43 S8 30.15R BUMPASS* FAIR 43 20 40 CALM 30.12R FARMVILLE* CLEAR 45 27 49 SW8 30.13R CREWE* FAIR 44 25 46 S3 30.15S FORT PICKETT* NOT AVBL CHASE CITY* FAIR 44 25 47 CALM 30.17R CLARKSVILLE* FAIR 43 27 52 SW3 30.17S SOUTH HILL* CLEAR 43 26 50 CALM 30.23R LAWRENCEVILLE* FAIR 43 23 45 CALM 30.17S EMPORIA* N/A 39 25 56 CALM 30.20R $$ VAZ088>098-162300- SOUTHEAST VIRGINIA CITY SKY/WX TMP DP RH WIND PRES REMARKS NORFOLK CLEAR 45 21 38 SW9 30.18R VIRGINIA BEACH PTCLDY 44 20 38 SW8 30.18R NORFOLK NAVAL PTCLDY 44 22 41 SW6 30.20R WEST POINT* CLEAR N/A N/A N/A S5 30.18R SALUDA* FAIR 43 23 45 S3 30.16R NEWPORT NEWS CLEAR 42 24 49 SW10 30.18R LANGLEY AFB CLEAR 43 23 45 SW8 30.17R FORT EUSTIS CLEAR 44 26 48 SW5 30.15R WILLIAMSBURG* CLEAR 46 25 42 CALM 30.18R HR EXEC AP* FAIR 41 23 48 SW5 30.20R FRANKLIN* CLEAR 44 22 42 SW3 30.20R US460-WAKEFLD CLEAR 44 24 45 SW3 30.18R $$ VAZ020-022-025-037-045-162300- WEST CENTRAL AND SOUTHWEST VIRGINIA CITY SKY/WX TMP DP RH WIND PRES REMARKS STAUNTON* CLEAR 44 24 45 SW9 30.08R WAYNESBORO* CLEAR 44 22 41 S5 30.07R HOT SPRINGS VA CLEAR 35 20 53 W17G23 30.04R WCI 25 LYNCHBURG CLEAR 42 24 49 S8 30.12R DANVILLE CLEAR 45 24 43 SW6 30.17R SOUTH BOSTON* FAIR 45 22 40 SW5 30.17S MARTINSVILLE CLEAR 44 23 44 SW3 30.19R ROANOKE PTCLDY 47 23 38 SW10 30.14R BLACKSBURG CLEAR 42 24 49 SW5 30.15R DUBLIN* CLEAR 40 25 55 SW8 30.14R MARION* CLEAR 39 22 50 W8 30.17R HILLSVILLE* CLEAR 42 19 39 W3 30.12R RICHLANDS* FAIR 38 22 52 W7 30.14S WISE* CLEAR 37 27 65 CALM 30.16R ABINGDON* CLEAR 41 26 54 W6 30.18R $$ MDZ021>025-VAZ099-100-162300- SOUTHERN MARYLAND AND THE DELMARVA PENINSULA CITY SKY/WX TMP DP RH WIND PRES REMARKS PATUXENT RIVER PTCLDY 43 22 43 S5 30.12R BAY BRIDGE APT CLEAR 43 27 52 SW9 30.10R LEONARDTOWN CLEAR 43 23 45 S3 30.13S DOVER CLEAR 38 28 66 S8 30.09R GEORGETOWN CLEAR 39 24 55 SW8 30.13R EASTON PTCLDY 41 25 52 SW9 30.14R CAMBRIDGE CLEAR 41 25 52 VRB6 30.12R SALISBURY CLEAR 38 24 57 S7 30.13R OCEAN CITY CLEAR 39 26 59 SW7 30.14R WALLOPS ISLAND CLEAR 41 24 51 SW8 30.15S ACCOMACK* CLEAR 41 27 58 S8 30.16S $$ NCZ012>017-030>032-162300- NORTH CENTRAL AND EASTERN NORTH CAROLINA CITY SKY/WX TMP DP RH WIND PRES REMARKS ROANOKE RAPIDS FAIR 43 27 52 SW6 30.19R RALEIGH MOCLDY 43 24 47 SW7 30.20R ELIZABETH CITY CLEAR 41 28 60 SW6 30.20R AHOSKIE* CLEAR 42 26 52 CALM 30.20R EDENTON* CLEAR 46 29 52 SW8 30.21S CURRITUCK* CLEAR 43 26 52 CALM 30.20R KILL DEVIL HLS CLEAR 40 24 54 CALM 30.20R MANTEO CLEAR 41 29 64 S6 30.21S CAPE HATTERAS CLEAR 41 28 60 W5 30.22R TARBORO* NOT AVBL GOLDSBORO CLEAR 45 25 45 SW6 30.21R WASHINGTON CLEAR 45 24 45 SW6 30.22R GREENVILLE CLEAR 45 27 49 W5 30.23R NEW BERN CLEAR 43 29 57 CALM 30.24R WILMINGTON PTCLDY 49 27 42 W8 30.25R $$ VAZ048-162300- ELSEWHERE CITY SKY/WX TMP DP RH WIND PRES REMARKS HARRISBURG PA CLOUDY 41 28 60 NW5 30.05R BALTIMORE PTCLDY 42 23 46 S5 30.08R ANNAPOLIS CLEAR 43 24 47 S3 30.10R ANDREWS AFB CLEAR 41 22 45 SW8 30.08R PHILADELPHIA MOCLDY 40 24 53 SW13 30.07R HENDERSON NC CLEAR 42 21 44 S6 30.19R GREENSBORO MOCLDY 44 24 45 SW8 30.18R ROCKY MOUNT CLEAR 42 26 53 S3 30.21R $$ VAZ100-162300- MARINE STATION/POSITION TIME TEMP WIND PRES WAVE SWELL AIR SEA DIR/SP/G HT/PER HT/PER (UTC) (F) (DEG/KT/KT) (MB) (FT/S) (FT/S) BRANDYWINE LGT 2136 42 240/ 18/ 21 1019.5R CAPE MAY NJ 2136 41 40 240/ 16/ 18 1018.9R LEWES DE 2136 42 40 240/ 10/ 16 1019.5R 15NM E FENWICK I 2150 45 51 230/ 19/ 23 1020.4R 3/ 4 2/27 OCEAN-CITY-INLET 2136 42 41 250/ 9/ 11 1020.8R WACHAPREAGUE VA 2136 42 40 230/ 4/ 6 1021.2S THOMAS POINT MD 2200 44 44 210/ 12/ 13 N/A GOOSES REEF MD 2200 45 45 200/ 12/ 16 1020.2 1/ 2 COVE POINT MD 2136 44 220/ 11/ 14 1020.4R SOLOMONS ISLAND 2136 45 45 210/ 8/ 10 1019.6R BISHOPS HEAD MD 2136 42 37 180/ 5/ 7 1020.6R PINEY POINT MD 2148 240/ 7/ 10 N/A POTOMAC MD 2200 45 45 210/ 10/ 12 1019.9 1/ 2 CAMBRIDGE MD 2136 42 40 1020.5R LEWISETTA VA 2136 45 39 230/ 8/ 9 1020.4R RAPPAHANNOCK LGT 2148 200/ 14/ 16 1021.7S STINGRAY PT 2200 45 45 240/ 8/ 10 1021.4 1/ 2 YORK RVR RNG VA 2136 46 230/ 11/ 12 1021.9R YORKTOWN VA 2148 45 45 220/ 6/ 9 1021.3R JAMESTOWN VA 2200 44 220/ 6/ 8 N/A 0 DOMINION TERM VA 2148 45 230/ 6/ 8 1022.3R KIPTOPEKE VA 2148 44 250/ 10/ 13 N/A CAPE HENRY VA 2148 45 220/ 5/ 6 N/A WILLOUBY STN VA 2148 240/ 12/ 13 1021.7R S CRANEY ISL VA 2148 45 230/ 4/ 7 1021.8R CAPE HENRY BUOY 2130 52 N/A 2/ 3 1ST LANDING BUOY 2200 46 47 260/ 10/ 12 1022.1 1/ 2 CAPE CHARLES BUO 2151 50 N/A 2/ 2 64NM E OF VA BCH 2150 45 58 250/ 10/ 14 1022.7R 2/ 7 2/ 7 DUCK PIER NC 2148 43 53 250/ 6/ 8 1022.5R 44100 DUCK FRF 2145 54 N/A 2/ 7 44056 DUCK FRF 2130 54 N/A 2/ 7 OREGON INLET NC 2148 190/ 10/ 12 N/A HATTERAS NC 2148 41 52 240/ 5/ 8 1023.0R DIAMOND SHLS NC 2200 47 73 280/ 10/ 16 1023.5 CAPE LOOKOUT NC 2200 250/ 5/ 6 1023.9S $$